User: anonymous   Login
Location: Huntington Beach
(33.6600°N, 117.9980°W)
Time: 17:21:14
(UTC-08:00)
Language:

SL-16 R/B - Orbit

View from above orbital plane
View from above orbital plane
View from above satellite
View from above satellite

Ground track
Ground track

The orbit data is extracted from the following two-line orbital elements,

1 28353U 04021B   15027.22357203 -.00000238  00000-0 -10020-3 0  9369
2 28353 071.0008 107.0218 0002670 071.3035 352.6561 14.14107337548895
Epoch (UTC): 27 January 2015 05:21:56
Eccentricity: 0.0002670
inclination: 71.0008°
perigee height: 843 km
apogee height: 847 km
right ascension of ascending node: 107.0218°
argument of perigee: 71.3035°
revolutions per day: 14.14107337
mean anomaly at epoch: 352.6561°
orbit number at epoch: 54889

The dashed part of the orbit path shows where the satellite is in the earth's shadow,  

DLR